[[{"header":{"parameterUnit":"m.s-1","parameterCategory":1,"la1":30.2991,"la2":30.254,"lo1":-89.0895,"lo2":-89.0444,"dy":0.0017,"dx":0.0017,"nx":28,"ny":28,"refTime":"2025-11-08T09:00:00:Z","depth":0,"parameterNumber":2,"parameterNumberName":"U-component_of_WINDS"},"data":[0,0,0,0,0,0,0,0,0,0,0,0,0,0,0,0,0,0,0,0,0,0,0,0,0,0,0,0,0,0,0,0,0,0,0,0,0,0,0,0,0,0,0,0,0,0,0,0,0,0,0,0,0,0,0,0,0,0,-0.8519,-0.8519,0,-0.8537,-0.8537,-0.8537,-0.8576,-0.8577,-0.8578,-0.8578,-0.8594,-0.8594,-0.8593,0,0,0,0,0,0,0,0,0,0,0,0,0,-0.8516,-0.8516,-0.8519,-0.8519,-0.852,-0.8537,-0.8537,-0.8537,-0.8576,-0.8577,-0.8578,-0.8579,-0.8594,-0.8594,-0.8593,0,0,0,0,0,0,0,0,0,0,0,0,0,-0.8524,-0.8516,-0.8519,-0.8541,-0.8543,-0.8537,-0.8537,-0.8537,-0.8576,-0.8577,-0.8578,-0.8579,-0.8594,-0.8594,-0.8593,-0.8566,0,0,-0.8592,-0.8591,0,0,0,0,0,0,0,0,-0.8523,-0.8524,-0.8537,-0.8539,-0.8542,-0.8556,-0.8542,-0.8547,-0.8575,-0.8563,-0.8578,-0.858,-0.858,-0.8581,-0.8581,-0.8567,-0.8568,-0.8592,-0.8591,-0.8591,-0.8591,0,0,0,0,0,0,0,-0.8523,-0.8523,-0.8526,-0.8538,-0.854,-0.8549,-0.8551,-0.8543,-0.8565,-0.8564,-0.8567,-0.8569,-0.8581,-0.8582,-0.8582,-0.8568,-0.8592,-0.8591,-0.8591,-0.8591,-0.853,-0.8529,0,0,0,0,0,0,-0.8519,-0.8522,-0.8526,-0.8527,-0.8535,-0.8548,-0.8551,-0.855,-0.8565,-0.8568,-0.8568,-0.8571,-0.8582,-0.8583,-0.8583,-0.855,-0.8591,-0.8591,-0.859,-0.8532,-0.853,-0.8529,0,0,0,0,0,0,-0.8519,-0.8519,-0.8525,-0.8525,-0.8527,-0.8547,-0.8545,-0.855,-0.855,-0.8568,-0.8571,-0.8564,-0.8583,-0.8583,-0.857,-0.8551,-0.859,-0.859,-0.8533,-0.8531,-0.8529,-0.8486,0,0,0,0,0,0,-0.8519,-0.8519,-0.8509,-0.8525,-0.8527,-0.8512,-0.8544,-0.8549,-0.8549,-0.8553,-0.8565,-0.8568,-0.8584,-0.857,-0.8569,-0.8551,-0.859,-0.8535,-0.8532,-0.853,-0.8489,-0.8483,-0.8478,0,0,0,0,0,-0.8518,-0.8496,-0.8509,-0.8509,-0.8515,-0.8511,-0.8512,-0.8531,-0.8548,-0.8538,-0.8549,-0.8568,-0.8554,-0.8569,-0.8568,-0.8549,-0.8536,-0.8533,-0.853,-0.8492,-0.8484,-0.8478,0,0,0,0,0,0,-0.8477,-0.8499,-0.8513,-0.8495,-0.8501,-0.8518,-0.8506,-0.8523,-0.8523,-0.8527,-0.855,-0.8552,-0.8535,-0.8541,-0.8557,-0.8523,-0.8548,-0.8545,-0.8519,-0.8512,-0.8506,-0.8504,-0.8589,0,0,0,0,0,-0.8467,-0.8462,-0.8481,-0.8464,-0.8466,-0.8485,-0.8484,-0.8499,-0.8505,-0.8508,-0.8518,-0.8523,-0.8519,-0.8517,-0.8515,-0.8491,-0.8493,-0.8478,-0.8472,-0.8468,-0.8463,-0.8449,-0.8442,-0.8519,-0.8519,-0.8519,0,0,-0.8444,-0.8455,-0.845,-0.8456,-0.8462,-0.8455,-0.8487,-0.848,-0.8474,-0.8506,-0.8493,-0.8501,-0.8508,-0.8489,-0.8481,-0.8494,-0.8443,-0.8464,-0.846,-0.8458,-0.8446,-0.8438,-0.8432,-0.8517,-0.8517,-0.8518,0,0,-0.8398,-0.8407,-0.8393,-0.8398,-0.8408,-0.8421,-0.8417,-0.8431,-0.8438,-0.8426,-0.8449,-0.8443,-0.8437,-0.8441,-0.8442,-0.8397,-0.8414,-0.8396,-0.8364,-0.835,-0.8344,-0.8339,-0.832,-0.8314,-0.8393,-0.8393,-0.8392,0,-0.8367,-0.836,-0.8383,-0.8373,-0.8374,-0.8404,-0.8388,-0.8393,-0.84,-0.84,-0.8414,-0.8407,-0.8414,-0.8395,-0.8384,-0.8385,-0.838,-0.8393,-0.8344,-0.8338,-0.8334,-0.8316,-0.831,-0.839,-0.839,-0.8391,-0.8391,0,-0.8321,-0.8315,-0.8303,-0.831,-0.8309,-0.8297,-0.8317,-0.8314,-0.8328,-0.8339,-0.8325,-0.8335,-0.8335,-0.8332,-0.8346,-0.8314,-0.8321,-0.834,-0.8364,-0.8324,-0.8307,-0.8301,-0.8387,-0.8388,-0.8388,-0.8389,0,0,-0.8248,-0.8269,-0.8263,-0.8266,-0.8279,-0.8274,-0.8263,-0.8263,-0.8259,-0.8263,-0.8253,-0.8247,-0.8264,-0.8265,-0.828,-0.8268,-0.8229,-0.8287,-0.8288,-0.8273,-0.8191,-0.8175,-0.8167,-0.8241,-0.824,-0.8239,-0.819,0,-0.8203,-0.8185,-0.8205,-0.8182,-0.8176,-0.8205,-0.8194,-0.82,-0.821,-0.8206,-0.8217,-0.8211,-0.8235,-0.8236,-0.8225,-0.8236,-0.8212,-0.824,-0.8229,-0.8228,-0.8223,-0.8159,-0.8143,-0.8096,-0.8184,-0.8183,-0.8182,0,-0.8148,-0.815,-0.8127,-0.814,-0.8138,-0.8128,-0.8129,-0.8126,-0.8132,-0.814,-0.8141,-0.816,-0.8148,-0.8174,-0.8157,-0.8175,-0.8172,-0.8176,-0.8175,-0.8172,-0.82,-0.8152,-0.8082,-0.8073,-0.8173,-0.8174,-0.8174,0,-0.8094,-0.8091,-0.8076,-0.8078,-0.8094,-0.8086,-0.8092,-0.81,-0.8099,-0.81,-0.8098,-0.8098,-0.8097,-0.8096,-0.8112,-0.813,-0.8092,-0.812,-0.8096,-0.8095,-0.8084,-0.8084,-0.8009,-0.8087,-0.8087,-0.8088,-0.8088,0,-0.804,-0.8023,-0.8052,-0.8042,-0.8024,-0.8048,-0.8029,-0.8038,-0.8045,-0.8037,-0.8062,-0.8053,-0.8077,-0.8071,-0.8084,-0.8066,-0.8066,-0.8071,-0.8074,-0.8067,-0.8066,-0.8063,-0.8065,-0.8086,-0.8086,-0.8087,-0.8087,0,-0.7975,-0.7994,-0.7979,-0.7995,-0.7999,-0.7984,-0.7998,-0.7989,-0.8001,-0.799,-0.7989,-0.8007,-0.8001,-0.8018,-0.8015,-0.8023,-0.7997,-0.8007,-0.7994,-0.7996,-0.797,-0.7971,-0.7888,-0.7877,-0.7965,-0.7964,-0.7963,0,-0.7937,-0.7925,-0.7941,-0.7937,-0.7942,-0.7936,-0.7935,-0.7958,-0.7955,-0.7961,-0.7951,-0.7947,-0.7945,-0.7933,-0.7945,-0.7942,-0.795,-0.7921,-0.7949,-0.7942,-0.7946,-0.7945,-0.7942,-0.7914,-0.7913,-0.7912,-0.7912,0,-0.7868,-0.7878,-0.7876,-0.7876,-0.7874,-0.7875,-0.7878,-0.7874,-0.7898,-0.7894,-0.7888,-0.7886,-0.7882,-0.7876,-0.7876,-0.7881,-0.7899,-0.7903,-0.7897,-0.7888,-0.788,-0.788,-0.7975,-0.7904,-0.7905,-0.7905,-0.7906,-0.7906,-0.7814,-0.7804,-0.7813,-0.7809,-0.7814,-0.7816,-0.7808,-0.7819,-0.7815,-0.7814,-0.7828,-0.7818,-0.7824,-0.7826,-0.7829,-0.782,-0.7833,-0.7825,-0.7822,-0.7819,-0.7813,-0.7884,-0.7821,-0.7821,-0.7821,-0.7821,-0.7822,0,-0.7744,-0.7751,-0.7747,-0.775,-0.7747,-0.7767,-0.7771,-0.7766,-0.7758,-0.7763,-0.776,-0.7752,-0.7747,-0.7759,-0.7755,-0.7746,-0.7754,-0.7744,-0.7743,-0.7743,-0.7803,-0.7808,-0.7737,-0.7737,-0.7737,-0.7737,-0.7737,-0.7737,-0.7706,-0.769,-0.7701,-0.7686,-0.7694,-0.7685,-0.7685,-0.7686,-0.769,-0.768,-0.7677,-0.7685,-0.7692,-0.7689,-0.7685,-0.7688,-0.7684,-0.767,-0.7676,-0.7731,-0.774,-0.7747,-0.7751,-0.767,-0.767,-0.7617,-0.7616,-0.7616]},{"header":{"parameterUnit":"m.s-1","parameterCategory":1,"la1":30.2991,"la2":30.254,"lo1":-89.0895,"lo2":-89.0444,"dy":0.0017,"dx":0.0017,"nx":28,"ny":28,"refTime":"2025-11-08T09:00:00:Z","depth":0,"parameterNumber":3,"parameterNumberName":"V-component_of_WINDS"},"data":[0,0,0,0,0,0,0,0,0,0,0,0,0,0,0,0,0,0,0,0,0,0,0,0,0,0,0,0,0,0,0,0,0,0,0,0,0,0,0,0,0,0,0,0,0,0,0,0,0,0,0,0,0,0,0,0,0,0,2.986,2.9861,0,2.9942,2.9943,2.9944,2.9952,2.9951,2.9951,2.995,3.0031,3.0034,3.0037,0,0,0,0,0,0,0,0,0,0,0,0,0,2.9708,2.9711,2.986,2.9861,2.9862,2.9942,2.9943,2.9944,2.9952,2.9951,2.995,2.9949,3.003,3.0034,3.0037,0,0,0,0,0,0,0,0,0,0,0,0,0,2.978,2.9712,2.986,2.9876,2.9878,2.9942,2.9943,2.9945,2.9953,2.9951,2.995,2.9949,3.0029,3.0033,3.0038,3.009,0,0,3.0051,3.0053,0,0,0,0,0,0,0,0,2.9776,2.9786,2.9872,2.9875,2.9877,2.9936,2.992,2.9993,2.9953,2.9924,2.995,2.9948,3.0,3.0007,3.0025,3.0094,3.0098,3.0052,3.0054,3.0056,3.0057,0,0,0,0,0,0,0,2.9771,2.9783,2.9892,2.9873,2.9877,2.9878,2.9887,2.9934,2.9968,2.9927,2.9927,2.9937,3.0001,3.0021,3.0027,3.0099,3.0051,3.0055,3.0058,3.006,3.0218,3.022,0,0,0,0,0,0,2.9764,2.9778,2.989,2.9895,2.9823,2.9882,2.9892,2.9918,2.9968,2.9974,2.9938,2.9937,3.0014,3.0022,3.003,3.0097,3.0056,3.006,3.0063,3.0217,3.0219,3.022,0,0,0,0,0,0,2.976,2.9773,2.9886,2.9837,2.9851,2.9886,2.9915,2.992,2.994,2.9977,2.9982,2.9952,3.0013,3.0024,3.0076,3.01,3.0062,3.0066,3.0215,3.0217,3.0219,3.023,0,0,0,0,0,0,2.9756,2.9772,2.9793,2.9837,2.9854,2.9932,2.9917,2.9923,2.9948,2.9948,2.9991,2.9997,3.0013,3.007,3.0081,3.0105,3.007,3.0213,3.0216,3.0219,3.0228,3.0232,3.0236,0,0,0,0,0,2.975,2.9791,2.9794,2.9807,2.9881,2.9933,2.9942,2.9961,2.995,2.9971,2.9995,2.9995,3.0095,3.0075,3.0087,3.0114,3.0212,3.0215,3.0218,3.0226,3.0231,3.0236,0,0,0,0,0,0,2.9747,2.9797,2.9801,2.9857,2.9891,2.9934,2.9961,2.9966,3.0003,3.0001,3.0021,3.0031,3.0083,3.0103,3.008,3.0169,3.0152,3.0158,3.0153,3.0159,3.0164,3.0158,3.0073,0,0,0,0,0,2.9753,2.9792,2.9833,2.9879,2.9896,2.9926,2.9949,2.9961,2.9996,3.001,3.0038,3.0071,3.0111,3.0136,3.0174,3.0231,3.0241,3.0255,3.0259,3.0263,3.0268,3.0302,3.0309,3.0232,3.0232,3.0232,0,0,2.9765,2.9798,2.9821,2.988,2.9907,2.9947,2.9938,2.998,3.001,3.0016,3.0068,3.009,3.0129,3.0185,3.021,3.0203,3.0292,3.0267,3.027,3.0273,3.0306,3.0313,3.032,3.0234,3.0234,3.0233,0,0,2.9808,2.9836,2.9879,2.9907,2.995,2.997,2.998,3.0023,3.0038,3.0091,3.0098,3.0133,3.02,3.0228,3.0251,3.0308,3.0311,3.032,3.0343,3.0375,3.0381,3.0387,3.0409,3.0416,3.0325,3.0325,3.0325,0,2.9818,2.9879,2.99,2.9943,2.9969,2.9979,3.0022,3.0048,3.01,3.0118,3.011,3.0196,3.0222,3.0286,3.03,3.0318,3.0331,3.0315,3.0379,3.0385,3.039,3.0411,3.0419,3.0326,3.0326,3.0325,3.0325,0,2.989,2.9932,2.9961,3.0014,3.0043,3.0086,3.0113,3.014,3.015,3.0171,3.0225,3.0258,3.0304,3.032,3.0328,3.0385,3.038,3.0375,3.0359,3.0398,3.0418,3.0426,3.0327,3.0327,3.0326,3.0326,0,0,2.9932,2.9997,3.0008,3.0033,3.0081,3.0114,3.0158,3.0204,3.0228,3.0264,3.0302,3.0359,3.0356,3.0382,3.0395,3.0423,3.0468,3.0415,3.0416,3.0425,3.0535,3.0539,3.0548,3.047,3.0472,3.0473,3.0532,0,2.9982,3.0061,3.0082,3.0149,3.019,3.0201,3.0239,3.0273,3.0294,3.0331,3.0354,3.0395,3.0387,3.0403,3.0432,3.0457,3.0491,3.0453,3.0506,3.0508,3.0497,3.0558,3.0562,3.0616,3.054,3.0541,3.0542,0,3.005,3.009,3.0162,3.0208,3.0226,3.026,3.0306,3.0341,3.038,3.0393,3.0424,3.0434,3.0481,3.0463,3.0527,3.0501,3.0524,3.054,3.0543,3.0549,3.0528,3.0567,3.0634,3.0642,3.0555,3.0554,3.0553,0,3.0076,3.0147,3.0201,3.0221,3.0275,3.03,3.0323,3.0362,3.0389,3.0428,3.0447,3.049,3.0514,3.0548,3.057,3.0554,3.0634,3.0617,3.0647,3.0646,3.0663,3.0662,3.0735,3.0676,3.0676,3.0676,3.0676,0,3.013,3.0174,3.0213,3.0246,3.0296,3.0319,3.0368,3.0392,3.0426,3.0464,3.0475,3.051,3.0537,3.0575,3.0593,3.0645,3.0655,3.0668,3.0672,3.0668,3.0666,3.0684,3.0681,3.0678,3.0678,3.0677,3.0677,0,3.0167,3.0195,3.0254,3.0301,3.0314,3.0349,3.039,3.0422,3.0444,3.0492,3.0505,3.0539,3.0586,3.0611,3.0668,3.068,3.0739,3.0741,3.0727,3.0729,3.0758,3.0755,3.0846,3.086,3.079,3.0791,3.0791,0,3.02,3.0235,3.0287,3.0314,3.0338,3.0381,3.041,3.0434,3.0464,3.0513,3.0539,3.0587,3.0626,3.07,3.073,3.0775,3.0778,3.0807,3.0785,3.078,3.0781,3.0779,3.0783,3.0811,3.0812,3.0812,3.0813,0,3.0257,3.027,3.0311,3.0358,3.0393,3.043,3.0468,3.0489,3.052,3.0552,3.0601,3.0632,3.0692,3.074,3.0787,3.0811,3.0818,3.0819,3.0829,3.0825,3.0816,3.0823,3.0738,3.0817,3.0817,3.0816,3.0816,3.0816,3.0294,3.0326,3.0369,3.0415,3.0446,3.0482,3.0515,3.0543,3.0584,3.0636,3.0648,3.07,3.074,3.0805,3.083,3.0871,3.0866,3.0879,3.0883,3.0886,3.0888,3.0809,3.088,3.088,3.088,3.0879,3.0879,0,3.0352,3.0381,3.0423,3.0477,3.0514,3.0518,3.056,3.059,3.0636,3.0674,3.0713,3.077,3.0817,3.0851,3.0899,3.0925,3.093,3.0937,3.0936,3.0942,3.0889,3.0877,3.0933,3.0933,3.0933,3.0933,3.0933,3.0933,3.0387,3.0443,3.0461,3.0532,3.056,3.0612,3.0636,3.0669,3.07,3.0763,3.0803,3.0825,3.0862,3.0913,3.0957,3.0966,3.0983,3.0991,3.1,3.0951,3.0945,3.094,3.0928,3.0994,3.0994,3.105,3.105,3.105]}]]